Time,TemperatureF,DewpointF,PressureIn,WindDirection,WindDirectionDegrees,WindSpeedMPH,WindSpeedGustMPH,Humidity,HourlyPrecipIn,Conditions,Clouds,dailyrainin,SoftwareType,DateUTC
2013-03-05 00:00:00,40.7,33.4,30.01,NW,320,0.0,0.0,75,0.00,,---,0.00,VWS V14.01,2013-03-05 05:00:00,
2013-03-05 00:05:00,39.7,31.8,30.02,NW,319,0.0,0.0,73,0.00,,---,0.00,VWS V14.01,2013-03-05 05:05:00,
2013-03-05 00:06:00,41.0,33.7,30.01,NW,320,0.0,0.0,75,0.00,,---,0.00,VWS V14.01,2013-03-05 05:06:00,
2013-03-05 00:10:00,39.6,32.0,30.02,NW,319,0.0,0.0,74,0.00,,---,0.00,VWS V14.01,2013-03-05 05:10:00,
2013-03-05 00:11:00,41.2,33.5,30.01,NW,320,0.0,0.0,74,0.00,,---,0.00,VWS V14.01,2013-03-05 05:11:00,
2013-03-05 00:15:00,39.5,31.9,30.02,NW,319,0.0,0.0,74,0.00,,---,0.00,VWS V14.01,2013-03-05 05:15:00,
2013-03-05 00:16:00,41.5,34.5,30.01,NW,320,0.0,0.0,76,0.00,,---,0.00,VWS V14.01,2013-03-05 05:16:00,
2013-03-05 00:20:00,39.5,32.2,30.02,NW,319,0.0,0.0,75,0.00,,---,0.00,VWS V14.01,2013-03-05 05:20:00,
2013-03-05 00:21:00,41.6,34.3,30.00,NW,321,0.0,0.0,75,0.00,,---,0.00,VWS V14.01,2013-03-05 05:21:00,
2013-03-05 00:25:00,39.4,32.2,30.03,NW,319,0.0,0.0,75,0.00,,---,0.00,VWS V14.01,2013-03-05 05:25:00,
2013-03-05 00:26:00,41.6,34.3,29.99,NW,320,0.0,0.0,75,0.00,,---,0.00,VWS V14.01,2013-03-05 05:26:00,
2013-03-05 00:30:00,39.2,32.0,30.03,NW,319,0.0,0.0,75,0.00,,---,0.00,VWS V14.01,2013-03-05 05:30:00,
2013-03-05 00:31:00,41.6,34.6,29.99,NW,321,0.0,0.0,76,0.00,,---,0.00,VWS V14.01,2013-03-05 05:31:00,
2013-03-05 00:35:00,39.0,31.8,30.03,NW,319,0.0,0.0,75,0.00,,---,0.00,VWS V14.01,2013-03-05 05:35:00,
2013-03-05 00:36:00,41.4,34.1,29.99,NW,320,0.0,0.0,75,0.00,,---,0.00,VWS V14.01,2013-03-05 05:36:00,
2013-03-05 00:40:00,38.8,31.9,30.03,NW,319,0.0,0.0,76,0.00,,---,0.00,VWS V14.01,2013-03-05 05:40:00,
2013-03-05 00:41:00,41.3,33.7,29.99,NW,320,0.0,0.0,74,0.00,,---,0.00,VWS V14.01,2013-03-05 05:41:00,
2013-03-05 00:45:00,38.8,32.2,30.03,NW,319,0.0,0.0,77,0.00,,---,0.00,VWS V14.01,2013-03-05 05:45:00,
2013-03-05 00:46:00,41.2,33.9,29.99,NW,320,0.0,0.0,75,0.00,,---,0.00,VWS V14.01,2013-03-05 05:46:00,
2013-03-05 00:50:00,38.9,32.3,30.03,NW,319,0.0,0.0,77,0.00,,---,0.00,VWS V14.01,2013-03-05 05:50:00,
2013-03-05 00:51:00,41.1,34.1,29.99,NW,320,0.0,0.0,76,0.00,,---,0.00,VWS V14.01,2013-03-05 05:51:00,
2013-03-05 00:55:00,39.0,32.4,30.03,NW,319,0.0,0.0,77,0.00,,---,0.00,VWS V14.01,2013-03-05 05:55:00,
2013-03-05 00:56:00,41.1,34.1,29.99,NW,321,0.0,0.0,76,0.00,,---,0.00,VWS V14.01,2013-03-05 05:56:00,
2013-03-05 01:00:00,39.2,32.6,30.02,NW,319,0.0,0.0,77,0.00,,---,0.00,VWS V14.01,2013-03-05 06:00:00,
2013-03-05 01:01:00,41.0,34.0,29.98,NW,321,0.0,0.0,76,0.00,,---,0.00,VWS V14.01,2013-03-05 06:01:00,
2013-03-05 01:05:00,39.4,32.8,30.02,NW,319,0.0,0.0,77,0.00,,---,0.00,VWS V14.01,2013-03-05 06:05:00,
2013-03-05 01:06:00,41.0,34.3,29.98,NW,321,0.0,0.0,77,0.00,,---,0.00,VWS V14.01,2013-03-05 06:06:00,
2013-03-05 01:10:00,39.6,33.3,30.02,NW,319,0.0,0.0,78,0.00,,---,0.00,VWS V14.01,2013-03-05 06:10:00,
2013-03-05 01:11:00,41.0,34.3,29.98,NW,320,0.0,0.0,77,0.00,,---,0.00,VWS V14.01,2013-03-05 06:11:00,
2013-03-05 01:15:00,39.8,32.9,30.02,NW,319,0.0,0.0,76,0.00,,---,0.00,VWS V14.01,2013-03-05 06:15:00,
2013-03-05 01:16:00,41.0,34.3,29.98,NW,321,0.0,0.0,77,0.00,,---,0.00,VWS V14.01,2013-03-05 06:16:00,
2013-03-05 01:20:00,40.1,32.8,30.02,NW,320,0.0,0.0,75,0.00,,---,0.00,VWS V14.01,2013-03-05 06:20:00,
2013-03-05 01:21:00,41.0,34.3,29.98,NW,321,0.0,0.0,77,0.00,,---,0.00,VWS V14.01,2013-03-05 06:21:00,
2013-03-05 01:25:00,40.3,32.7,30.02,NW,320,0.0,0.0,74,0.00,,---,0.00,VWS V14.01,2013-03-05 06:25:00,
2013-03-05 01:26:00,41.1,34.5,29.98,NW,320,0.0,0.0,77,0.00,,---,0.00,VWS V14.01,2013-03-05 06:26:00,
2013-03-05 01:30:00,40.6,33.3,30.01,NW,320,0.0,0.0,75,0.00,,---,0.00,VWS V14.01,2013-03-05 06:30:00,
2013-03-05 01:31:00,41.1,34.5,29.98,NW,320,0.0,0.0,77,0.00,,---,0.00,VWS V14.01,2013-03-05 06:31:00,
2013-03-05 01:35:00,40.9,33.6,30.01,NW,319,0.0,0.0,75,0.00,,---,0.00,VWS V14.01,2013-03-05 06:35:00,
2013-03-05 01:36:00,41.2,34.5,29.98,NW,321,0.0,0.0,77,0.00,,---,0.00,VWS V14.01,2013-03-05 06:36:00,
2013-03-05 01:40:00,41.2,33.6,30.01,NW,320,0.0,0.0,74,0.00,,---,0.00,VWS V14.01,2013-03-05 06:40:00,
2013-03-05 01:41:00,41.2,34.9,29.98,NW,321,0.0,0.0,78,0.00,,---,0.00,VWS V14.01,2013-03-05 06:41:00,
2013-03-05 01:45:00,41.4,34.4,30.01,NW,320,0.0,0.0,76,0.00,,---,0.00,VWS V14.01,2013-03-05 06:45:00,
2013-03-05 01:46:00,41.2,34.9,29.97,NW,321,0.0,0.0,78,0.00,,---,0.00,VWS V14.01,2013-03-05 06:46:00,
2013-03-05 01:50:00,41.6,34.3,30.00,NW,321,0.0,0.0,75,0.00,,---,0.00,VWS V14.01,2013-03-05 06:50:00,
2013-03-05 01:51:00,41.1,35.1,29.97,NW,320,0.0,0.0,79,0.00,,---,0.00,VWS V14.01,2013-03-05 06:51:00,
2013-03-05 01:55:00,41.6,34.3,30.00,NW,320,0.0,0.0,75,0.00,,---,0.00,VWS V14.01,2013-03-05 06:55:00,
2013-03-05 01:56:00,41.1,35.1,29.97,NW,320,0.0,0.0,79,0.00,,---,0.00,VWS V14.01,2013-03-05 06:56:00,
2013-03-05 02:00:00,41.6,34.6,29.99,NW,320,0.0,0.0,76,0.00,,---,0.00,VWS V14.01,2013-03-05 07:00:00,
2013-03-05 02:01:00,41.1,35.1,29.97,NW,320,0.0,0.0,79,0.00,,---,0.00,VWS V14.01,2013-03-05 07:01:00,
2013-03-05 02:05:00,41.5,34.5,29.99,NW,321,0.0,0.0,76,0.00,,---,0.00,VWS V14.01,2013-03-05 07:05:00,
2013-03-05 02:06:00,41.3,35.3,29.97,NW,321,0.0,0.0,79,0.00,,---,0.00,VWS V14.01,2013-03-05 07:06:00,
2013-03-05 02:10:00,41.3,33.7,29.99,NW,321,0.0,0.0,74,0.00,,---,0.00,VWS V14.01,2013-03-05 07:10:00,
2013-03-05 02:11:00,41.4,35.1,29.97,NW,320,0.0,0.0,78,0.00,,---,0.00,VWS V14.01,2013-03-05 07:11:00,
2013-03-05 02:15:00,41.2,33.9,29.99,NW,320,0.0,0.0,75,0.00,,---,0.00,VWS V14.01,2013-03-05 07:15:00,
2013-03-05 02:16:00,41.5,35.5,29.97,NW,321,0.0,0.0,79,0.00,,---,0.00,VWS V14.01,2013-03-05 07:16:00,
2013-03-05 02:20:00,41.2,34.2,29.99,NW,321,0.0,0.0,76,0.00,,---,0.00,VWS V14.01,2013-03-05 07:20:00,
2013-03-05 02:21:00,41.7,35.7,29.97,NW,320,0.0,0.0,79,0.00,,---,0.00,VWS V14.01,2013-03-05 07:21:00,
2013-03-05 02:25:00,41.1,34.1,29.99,NW,321,0.0,0.0,76,0.00,,---,0.00,VWS V14.01,2013-03-05 07:25:00,
2013-03-05 02:26:00,41.8,35.8,29.97,NW,320,0.0,0.0,79,0.00,,---,0.00,VWS V14.01,2013-03-05 07:26:00,
2013-03-05 02:30:00,41.0,34.0,29.98,NW,321,0.0,0.0,76,0.00,,---,0.00,VWS V14.01,2013-03-05 07:30:00,
2013-03-05 02:31:00,42.0,36.0,29.97,NW,321,0.0,0.0,79,0.00,,---,0.00,VWS V14.01,2013-03-05 07:31:00,
2013-03-05 02:35:00,41.0,34.0,29.98,NW,321,0.0,0.0,76,0.00,,---,0.00,VWS V14.01,2013-03-05 07:35:00,
2013-03-05 02:36:00,42.1,36.1,29.96,NW,321,0.0,0.0,79,0.00,,---,0.00,VWS V14.01,2013-03-05 07:36:00,
2013-03-05 02:40:00,41.0,34.3,29.98,NW,320,0.0,0.0,77,0.00,,---,0.00,VWS V14.01,2013-03-05 07:40:00,
2013-03-05 02:41:00,42.3,36.3,29.96,NW,320,0.0,0.0,79,0.00,,---,0.00,VWS V14.01,2013-03-05 07:41:00,
2013-03-05 02:45:00,41.0,34.3,29.98,NW,320,0.0,0.0,77,0.00,,---,0.00,VWS V14.01,2013-03-05 07:45:00,
2013-03-05 02:46:00,42.4,36.0,29.95,NW,320,0.0,0.0,78,0.00,,---,0.00,VWS V14.01,2013-03-05 07:46:00,
2013-03-05 02:50:00,41.0,34.3,29.98,NW,321,0.0,0.0,77,0.00,,---,0.00,VWS V14.01,2013-03-05 07:50:00,
2013-03-05 02:51:00,42.6,36.2,29.95,NW,320,0.0,0.0,78,0.00,,---,0.00,VWS V14.01,2013-03-05 07:51:00,
2013-03-05 02:55:00,41.1,34.5,29.98,NW,321,0.0,0.0,77,0.00,,---,0.00,VWS V14.01,2013-03-05 07:55:00,
2013-03-05 02:56:00,42.7,36.3,29.95,NW,321,0.0,0.0,78,0.00,,---,0.00,VWS V14.01,2013-03-05 07:56:00,
2013-03-05 03:00:00,41.1,34.5,29.98,NW,320,0.0,0.0,77,0.00,,---,0.00,VWS V14.01,2013-03-05 08:00:00,
2013-03-05 03:01:00,42.8,36.4,29.95,NW,320,0.0,0.0,78,0.00,,---,0.00,VWS V14.01,2013-03-05 08:01:00,
2013-03-05 03:05:00,41.1,34.5,29.98,NW,320,0.0,0.0,77,0.00,,---,0.00,VWS V14.01,2013-03-05 08:05:00,
2013-03-05 03:06:00,43.0,35.6,29.95,NW,321,0.0,0.0,75,0.00,,---,0.00,VWS V14.01,2013-03-05 08:06:00,
2013-03-05 03:10:00,41.2,34.5,29.98,NW,320,0.0,0.0,77,0.00,,---,0.00,VWS V14.01,2013-03-05 08:10:00,
2013-03-05 03:11:00,43.4,35.0,29.94,NW,320,0.0,0.0,72,0.00,,---,0.00,VWS V14.01,2013-03-05 08:11:00,
2013-03-05 03:15:00,41.2,34.9,29.97,NW,320,0.0,0.0,78,0.00,,---,0.00,VWS V14.01,2013-03-05 08:15:00,
2013-03-05 03:16:00,43.9,35.5,29.94,NW,320,0.0,0.0,72,0.00,,---,0.00,VWS V14.01,2013-03-05 08:16:00,
2013-03-05 03:20:00,41.2,35.2,29.97,NW,321,0.0,0.0,79,0.00,,---,0.00,VWS V14.01,2013-03-05 08:20:00,
2013-03-05 03:21:00,44.3,34.8,29.94,NW,320,0.0,0.0,69,0.00,,---,0.00,VWS V14.01,2013-03-05 08:21:00,
2013-03-05 03:25:00,41.1,35.1,29.97,NW,320,0.0,0.0,79,0.00,,---,0.00,VWS V14.01,2013-03-05 08:25:00,
2013-03-05 03:26:00,44.6,36.5,29.94,NW,320,0.0,0.0,73,0.00,,---,0.00,VWS V14.01,2013-03-05 08:26:00,
2013-03-05 03:30:00,41.1,35.1,29.97,NW,321,0.0,0.0,79,0.00,,---,0.00,VWS V14.01,2013-03-05 08:30:00,
2013-03-05 03:31:00,44.7,36.9,29.94,NW,321,0.0,0.0,74,0.00,,---,0.00,VWS V14.01,2013-03-05 08:31:00,
2013-03-05 03:35:00,41.2,35.2,29.97,NW,320,0.0,0.0,79,0.00,,---,0.00,VWS V14.01,2013-03-05 08:35:00,
2013-03-05 03:36:00,44.6,36.8,29.93,NW,320,0.0,0.0,74,0.00,,---,0.00,VWS V14.01,2013-03-05 08:36:00,
2013-03-05 03:40:00,41.3,35.6,29.97,NW,320,0.0,0.0,80,0.00,,---,0.00,VWS V14.01,2013-03-05 08:40:00,
2013-03-05 03:41:00,44.5,37.1,29.93,NW,320,0.0,0.0,75,0.00,,---,0.00,VWS V14.01,2013-03-05 08:41:00,
2013-03-05 03:45:00,41.4,35.1,29.97,NW,321,0.0,0.0,78,0.00,,---,0.00,VWS V14.01,2013-03-05 08:45:00,
2013-03-05 03:46:00,44.3,36.9,29.93,NW,320,0.0,0.0,75,0.00,,---,0.00,VWS V14.01,2013-03-05 08:46:00,
2013-03-05 03:50:00,41.6,35.6,29.97,NW,321,0.0,0.0,79,0.00,,---,0.00,VWS V14.01,2013-03-05 08:50:00,
2013-03-05 03:51:00,44.2,36.8,29.93,NW,320,0.0,0.0,75,0.00,,---,0.00,VWS V14.01,2013-03-05 08:51:00,
2013-03-05 03:55:00,41.7,35.7,29.97,NW,320,0.0,0.0,79,0.00,,---,0.00,VWS V14.01,2013-03-05 08:55:00,
2013-03-05 03:56:00,44.1,37.0,29.93,NW,320,0.0,0.0,76,0.00,,---,0.00,VWS V14.01,2013-03-05 08:56:00,
2013-03-05 04:00:00,41.9,35.9,29.97,NW,320,0.0,0.0,79,0.00,,---,0.00,VWS V14.01,2013-03-05 09:00:00,
2013-03-05 04:01:00,44.0,36.9,29.93,NW,321,0.0,0.0,76,0.00,,---,0.00,VWS V14.01,2013-03-05 09:01:00,
2013-03-05 04:05:00,42.1,36.1,29.96,NW,321,0.0,0.0,79,0.00,,---,0.00,VWS V14.01,2013-03-05 09:05:00,
2013-03-05 04:06:00,44.0,36.9,29.93,NW,320,0.0,0.0,76,0.00,,---,0.00,VWS V14.01,2013-03-05 09:06:00,
2013-03-05 04:10:00,42.2,36.2,29.96,NW,320,0.0,0.0,79,0.00,,---,0.00,VWS V14.01,2013-03-05 09:10:00,
2013-03-05 04:11:00,44.0,37.3,29.93,NW,321,0.0,0.0,77,0.00,,---,0.00,VWS V14.01,2013-03-05 09:11:00,
2013-03-05 04:15:00,42.4,36.4,29.96,NW,320,0.0,0.0,79,0.00,,---,0.00,VWS V14.01,2013-03-05 09:15:00,
2013-03-05 04:16:00,43.9,37.8,29.93,NW,320,0.0,0.0,79,0.00,,---,0.00,VWS V14.01,2013-03-05 09:16:00,
2013-03-05 04:20:00,42.5,36.1,29.96,NW,320,0.0,0.0,78,0.00,,---,0.00,VWS V14.01,2013-03-05 09:20:00,
2013-03-05 04:21:00,43.9,38.8,29.93,NW,320,0.0,0.0,82,0.00,,---,0.00,VWS V14.01,2013-03-05 09:21:00,
2013-03-05 04:25:00,42.6,36.2,29.95,NW,320,0.0,0.0,78,0.00,,---,0.00,VWS V14.01,2013-03-05 09:25:00,
2013-03-05 04:26:00,43.7,38.6,29.93,NW,320,0.0,0.0,82,0.00,,---,0.00,VWS V14.01,2013-03-05 09:26:00,
2013-03-05 04:30:00,42.8,36.4,29.95,NW,321,0.0,0.0,78,0.00,,---,0.00,VWS V14.01,2013-03-05 09:30:00,
2013-03-05 04:31:00,43.6,38.8,29.93,NW,320,0.0,0.0,83,0.00,,---,0.00,VWS V14.01,2013-03-05 09:31:00,
2013-03-05 04:35:00,42.9,35.9,29.95,NW,320,0.0,0.0,76,0.00,,---,0.00,VWS V14.01,2013-03-05 09:35:00,
2013-03-05 04:36:00,43.5,38.7,29.93,NW,320,0.0,0.0,83,0.00,,---,0.00,VWS V14.01,2013-03-05 09:36:00,
2013-03-05 04:40:00,43.2,34.8,29.95,NW,320,0.0,0.0,72,0.00,,---,0.00,VWS V14.01,2013-03-05 09:40:00,
2013-03-05 04:41:00,43.4,38.9,29.92,NW,320,0.0,0.0,84,0.00,,---,0.00,VWS V14.01,2013-03-05 09:41:00,
2013-03-05 04:45:00,43.7,35.3,29.94,NW,320,0.0,0.0,72,0.00,,---,0.00,VWS V14.01,2013-03-05 09:45:00,
2013-03-05 04:46:00,43.3,39.1,29.92,NW,320,0.0,0.0,85,0.00,,---,0.00,VWS V14.01,2013-03-05 09:46:00,
2013-03-05 04:50:00,44.1,35.0,29.94,NW,320,0.0,0.0,70,0.00,,---,0.00,VWS V14.01,2013-03-05 09:50:00,
2013-03-05 04:51:00,43.2,39.3,29.92,NW,321,0.0,0.0,86,0.00,,---,0.00,VWS V14.01,2013-03-05 09:51:00,
2013-03-05 04:55:00,44.5,36.0,29.94,NW,320,0.0,0.0,72,0.00,,---,0.00,VWS V14.01,2013-03-05 09:55:00,
2013-03-05 04:56:00,43.0,39.4,29.92,NW,321,0.0,0.0,87,0.00,,---,0.00,VWS V14.01,2013-03-05 09:56:00,
2013-03-05 05:00:00,44.7,36.9,29.94,NW,320,0.0,0.0,74,0.00,,---,0.00,VWS V14.01,2013-03-05 10:00:00,
2013-03-05 05:01:00,42.8,39.5,29.92,NW,320,0.0,0.0,88,0.00,,---,0.00,VWS V14.01,2013-03-05 10:01:00,
2013-03-05 05:05:00,44.6,36.8,29.94,NW,320,0.0,0.0,74,0.00,,---,0.00,VWS V14.01,2013-03-05 10:05:00,
2013-03-05 05:06:00,42.7,39.4,29.92,NW,321,0.0,0.0,88,0.00,,---,0.00,VWS V14.01,2013-03-05 10:06:00,
2013-03-05 05:10:00,44.5,36.7,29.93,NW,320,0.0,0.0,74,0.00,,---,0.00,VWS V14.01,2013-03-05 10:10:00,
2013-03-05 05:11:00,42.7,39.7,29.92,NW,321,0.0,0.0,89,0.00,,---,0.00,VWS V14.01,2013-03-05 10:11:00,
2013-03-05 05:15:00,44.4,37.3,29.93,NW,320,0.0,0.0,76,0.00,,---,0.00,VWS V14.01,2013-03-05 10:15:00,
2013-03-05 05:16:00,42.7,39.7,29.92,NW,320,0.0,0.0,89,0.00,,---,0.00,VWS V14.01,2013-03-05 10:16:00,
2013-03-05 05:20:00,44.2,36.8,29.92,NW,321,0.0,0.0,75,0.00,,---,0.00,VWS V14.01,2013-03-05 10:20:00,
2013-03-05 05:21:00,42.7,40.0,29.92,NW,320,0.0,0.0,90,0.00,,---,0.00,VWS V14.01,2013-03-05 10:21:00,
2013-03-05 05:25:00,44.2,37.5,29.93,NW,321,0.0,0.0,77,0.00,,---,0.00,VWS V14.01,2013-03-05 10:25:00,
2013-03-05 05:26:00,42.8,40.1,29.92,NW,321,0.0,0.0,90,0.00,,---,0.00,VWS V14.01,2013-03-05 10:26:00,
2013-03-05 05:30:00,44.1,37.0,29.93,NW,320,0.0,0.0,76,0.00,,---,0.00,VWS V14.01,2013-03-05 10:30:00,
2013-03-05 05:31:00,42.8,40.1,29.92,NW,320,0.0,0.0,90,0.00,,---,0.00,VWS V14.01,2013-03-05 10:31:00,
2013-03-05 05:35:00,44.0,36.9,29.93,NW,321,0.0,0.0,76,0.00,,---,0.00,VWS V14.01,2013-03-05 10:35:00,
2013-03-05 05:36:00,42.8,40.4,29.92,NW,320,0.0,0.0,91,0.00,,---,0.00,VWS V14.01,2013-03-05 10:36:00,
2013-03-05 05:40:00,44.0,36.9,29.93,NW,321,0.0,0.0,76,0.00,,---,0.00,VWS V14.01,2013-03-05 10:40:00,
2013-03-05 05:41:00,42.8,40.4,29.92,NW,321,0.0,0.0,91,0.00,,---,0.00,VWS V14.01,2013-03-05 10:41:00,
2013-03-05 05:45:00,43.9,37.8,29.93,NW,321,0.0,0.0,79,0.00,,---,0.00,VWS V14.01,2013-03-05 10:45:00,
2013-03-05 05:46:00,42.8,40.4,29.92,NW,320,0.0,0.0,91,0.00,,---,0.00,VWS V14.01,2013-03-05 10:46:00,
2013-03-05 05:50:00,43.9,38.1,29.93,NW,320,0.0,0.0,80,0.00,,---,0.00,VWS V14.01,2013-03-05 10:50:00,
2013-03-05 05:51:00,42.9,40.5,29.92,NW,321,0.0,0.0,91,0.00,,---,0.00,VWS V14.01,2013-03-05 10:51:00,
2013-03-05 05:55:00,43.8,38.7,29.93,NW,321,0.0,0.0,82,0.00,,---,0.00,VWS V14.01,2013-03-05 10:55:00,
2013-03-05 05:56:00,42.9,40.7,29.92,NW,320,0.0,0.0,92,0.00,,---,0.00,VWS V14.01,2013-03-05 10:56:00,
2013-03-05 06:00:00,43.6,38.5,29.93,NW,320,0.0,0.0,82,0.00,,---,0.00,VWS V14.01,2013-03-05 11:00:00,
2013-03-05 06:01:00,42.9,40.7,29.92,NW,320,0.0,0.0,92,0.00,,---,0.00,VWS V14.01,2013-03-05 11:01:00,
2013-03-05 06:05:00,43.5,38.7,29.93,NW,320,0.0,0.0,83,0.00,,---,0.00,VWS V14.01,2013-03-05 11:05:00,
2013-03-05 06:06:00,43.0,40.8,29.92,NW,320,0.0,0.0,92,0.00,,---,0.00,VWS V14.01,2013-03-05 11:06:00,
2013-03-05 06:10:00,43.5,39.0,29.93,NW,320,0.0,0.0,84,0.00,,---,0.00,VWS V14.01,2013-03-05 11:10:00,
2013-03-05 06:11:00,43.1,40.9,29.92,NW,320,0.0,0.0,92,0.00,,---,0.00,VWS V14.01,2013-03-05 11:11:00,
2013-03-05 06:15:00,43.4,38.9,29.92,NW,321,0.0,0.0,84,0.00,,---,0.00,VWS V14.01,2013-03-05 11:15:00,
2013-03-05 06:16:00,43.2,41.0,29.92,NW,321,0.0,0.0,92,0.00,,---,0.00,VWS V14.01,2013-03-05 11:16:00,
2013-03-05 06:20:00,43.2,39.3,29.92,NW,320,0.0,0.0,86,0.00,,---,0.00,VWS V14.01,2013-03-05 11:20:00,
2013-03-05 06:21:00,43.2,41.0,29.92,NW,321,0.0,0.0,92,0.00,,---,0.00,VWS V14.01,2013-03-05 11:21:00,
2013-03-05 06:25:00,43.1,39.2,29.92,NW,320,0.0,0.0,86,0.00,,---,0.00,VWS V14.01,2013-03-05 11:25:00,
2013-03-05 06:26:00,43.3,41.4,29.91,NW,320,0.0,0.0,93,0.00,,---,0.00,VWS V14.01,2013-03-05 11:26:00,
2013-03-05 06:30:00,42.9,39.6,29.92,NW,320,0.0,0.0,88,0.00,,---,0.00,VWS V14.01,2013-03-05 11:30:00,
2013-03-05 06:31:00,43.4,41.5,29.91,NW,321,0.0,0.0,93,0.00,,---,0.00,VWS V14.01,2013-03-05 11:31:00,
2013-03-05 06:35:00,42.7,39.4,29.92,NW,320,0.0,0.0,88,0.00,,---,0.00,VWS V14.01,2013-03-05 11:35:00,
2013-03-05 06:36:00,43.5,41.6,29.91,NW,320,0.0,0.0,93,0.00,,---,0.00,VWS V14.01,2013-03-05 11:36:00,
2013-03-05 06:40:00,42.7,39.7,29.92,NW,321,0.0,0.0,89,0.00,,---,0.00,VWS V14.01,2013-03-05 11:40:00,
2013-03-05 06:41:00,43.5,41.6,29.91,NW,321,0.0,0.0,93,0.00,,---,0.00,VWS V14.01,2013-03-05 11:41:00,
2013-03-05 06:45:00,42.7,39.7,29.92,NW,321,0.0,0.0,89,0.00,,---,0.00,VWS V14.01,2013-03-05 11:45:00,
2013-03-05 06:46:00,43.6,41.7,29.91,NW,320,0.0,0.0,93,0.00,,---,0.00,VWS V14.01,2013-03-05 11:46:00,
2013-03-05 06:50:00,42.7,39.7,29.91,NW,321,0.0,0.0,89,0.00,,---,0.00,VWS V14.01,2013-03-05 11:50:00,
2013-03-05 06:51:00,43.7,41.8,29.91,NW,321,0.0,0.0,93,0.00,,---,0.00,VWS V14.01,2013-03-05 11:51:00,
2013-03-05 06:55:00,42.8,40.1,29.92,NW,320,0.0,0.0,90,0.00,,---,0.00,VWS V14.01,2013-03-05 11:55:00,
2013-03-05 06:56:00,43.7,41.8,29.91,NW,320,0.0,0.0,93,0.00,,---,0.00,VWS V14.01,2013-03-05 11:56:00,
2013-03-05 07:00:00,42.8,40.1,29.92,NW,320,0.0,0.0,90,0.00,,---,0.00,VWS V14.01,2013-03-05 12:00:00,
2013-03-05 07:02:00,43.8,41.9,29.91,NW,321,0.0,0.0,93,0.00,,---,0.00,VWS V14.01,2013-03-05 12:02:00,
2013-03-05 07:05:00,42.8,40.1,29.92,NW,321,0.0,0.0,90,0.00,,---,0.00,VWS V14.01,2013-03-05 12:05:00,
2013-03-05 07:06:00,43.9,42.0,29.91,NW,320,0.0,0.0,93,0.00,,---,0.00,VWS V14.01,2013-03-05 12:06:00,
2013-03-05 07:10:00,42.8,40.4,29.92,NW,320,0.0,0.0,91,0.00,,---,0.00,VWS V14.01,2013-03-05 12:10:00,
2013-03-05 07:12:00,44.0,42.4,29.91,NW,320,0.0,0.0,94,0.00,,---,0.00,VWS V14.01,2013-03-05 12:12:00,
2013-03-05 07:15:00,42.8,40.4,29.92,NW,320,0.0,0.0,91,0.00,,---,0.00,VWS V14.01,2013-03-05 12:15:00,
2013-03-05 07:17:00,44.1,42.5,29.90,NW,320,0.0,0.0,94,0.00,,---,0.00,VWS V14.01,2013-03-05 12:17:00,
2013-03-05 07:20:00,42.8,40.4,29.92,NW,320,0.0,0.0,91,0.00,,---,0.00,VWS V14.01,2013-03-05 12:20:00,
2013-03-05 07:22:00,44.2,42.6,29.90,NW,320,0.0,0.0,94,0.00,,---,0.00,VWS V14.01,2013-03-05 12:22:00,
2013-03-05 07:25:00,42.9,40.5,29.92,NW,320,0.0,0.0,91,0.00,,---,0.00,VWS V14.01,2013-03-05 12:25:00,
2013-03-05 07:27:00,44.2,42.6,29.90,NW,320,0.0,0.0,94,0.00,,---,0.00,VWS V14.01,2013-03-05 12:27:00,
2013-03-05 07:30:00,42.9,40.7,29.92,NW,321,0.0,0.0,92,0.00,,---,0.00,VWS V14.01,2013-03-05 12:30:00,
2013-03-05 07:32:00,44.3,42.7,29.90,NW,320,0.0,0.0,94,0.00,,---,0.00,VWS V14.01,2013-03-05 12:32:00,
2013-03-05 07:35:00,42.9,40.7,29.92,NW,321,0.0,0.0,92,0.00,,---,0.00,VWS V14.01,2013-03-05 12:35:00,
2013-03-05 07:37:00,44.3,42.7,29.90,NW,320,0.0,0.0,94,0.00,,---,0.00,VWS V14.01,2013-03-05 12:37:00,
2013-03-05 07:40:00,43.0,40.8,29.92,NW,321,0.0,0.0,92,0.00,,---,0.00,VWS V14.01,2013-03-05 12:40:00,
2013-03-05 07:42:00,44.4,42.8,29.89,NW,320,0.0,0.0,94,0.00,,---,0.00,VWS V14.01,2013-03-05 12:42:00,
2013-03-05 07:45:00,43.1,40.9,29.92,NW,321,0.0,0.0,92,0.00,,---,0.00,VWS V14.01,2013-03-05 12:45:00,
2013-03-05 07:47:00,44.5,42.9,29.89,NW,319,0.0,0.0,94,0.00,,---,0.00,VWS V14.01,2013-03-05 12:47:00,
2013-03-05 07:50:00,43.2,41.0,29.92,NW,320,0.0,0.0,92,0.00,,---,0.00,VWS V14.01,2013-03-05 12:50:00,
2013-03-05 07:52:00,45.4,44.0,29.89,ENE,77,0.0,3.0,95,0.00,,---,0.00,VWS V14.01,2013-03-05 12:52:00,
2013-03-05 07:55:00,43.3,41.4,29.92,NW,320,0.0,0.0,93,0.00,,---,0.00,VWS V14.01,2013-03-05 12:55:00,
2013-03-05 07:57:00,45.3,43.4,29.89,ENE,75,0.0,1.0,93,0.00,,---,0.00,VWS V14.01,2013-03-05 12:57:00,
2013-03-05 08:00:00,43.3,41.4,29.92,NW,321,0.0,0.0,93,0.00,,---,0.00,VWS V14.01,2013-03-05 13:00:00,
2013-03-05 08:02:00,45.3,43.7,29.89,ENE,75,0.0,0.0,94,0.00,,---,0.00,VWS V14.01,2013-03-05 13:02:00,
2013-03-05 08:05:00,43.4,41.5,29.91,NW,321,0.0,0.0,93,0.00,,---,0.00,VWS V14.01,2013-03-05 13:05:00,
2013-03-05 08:07:00,45.3,43.7,29.89,ENE,75,0.0,0.0,94,0.00,,---,0.00,VWS V14.01,2013-03-05 13:07:00,
2013-03-05 08:10:00,43.5,41.6,29.91,NW,320,0.0,0.0,93,0.00,,---,0.00,VWS V14.01,2013-03-05 13:10:00,
2013-03-05 08:12:00,45.3,43.7,29.89,ENE,75,0.0,0.0,94,0.00,,---,0.00,VWS V14.01,2013-03-05 13:12:00,
2013-03-05 08:15:00,43.5,41.6,29.91,NW,320,0.0,0.0,93,0.00,,---,0.00,VWS V14.01,2013-03-05 13:15:00,
2013-03-05 08:17:00,45.4,44.0,29.89,ENE,75,0.0,0.0,95,0.00,,---,0.00,VWS V14.01,2013-03-05 13:17:00,
2013-03-05 08:20:00,43.6,41.7,29.91,NW,320,0.0,0.0,93,0.00,,---,0.00,VWS V14.01,2013-03-05 13:20:00,
2013-03-05 08:22:00,45.5,44.2,29.89,ENE,75,0.0,0.0,95,0.00,,---,0.00,VWS V14.01,2013-03-05 13:22:00,
2013-03-05 08:25:00,43.7,41.8,29.91,NW,320,0.0,0.0,93,0.00,,---,0.00,VWS V14.01,2013-03-05 13:25:00,
2013-03-05 08:27:00,45.5,44.2,29.89,ENE,75,0.0,0.0,95,0.00,,---,0.00,VWS V14.01,2013-03-05 13:27:00,
2013-03-05 08:30:00,43.8,41.9,29.91,NW,320,0.0,0.0,93,0.00,,---,0.00,VWS V14.01,2013-03-05 13:30:00,
2013-03-05 08:32:00,45.7,44.3,29.90,ENE,75,0.0,0.0,95,0.00,,---,0.00,VWS V14.01,2013-03-05 13:32:00,
2013-03-05 08:35:00,43.8,41.9,29.91,NW,321,0.0,0.0,93,0.00,,---,0.00,VWS V14.01,2013-03-05 13:35:00,
2013-03-05 08:37:00,45.9,44.5,29.90,ENE,75,0.0,0.0,95,0.00,,---,0.00,VWS V14.01,2013-03-05 13:37:00,
2013-03-05 08:40:00,43.9,42.0,29.91,NW,321,0.0,0.0,93,0.00,,---,0.00,VWS V14.01,2013-03-05 13:40:00,
2013-03-05 08:42:00,46.1,45.0,29.89,ENE,75,0.0,0.0,96,0.00,,---,0.00,VWS V14.01,2013-03-05 13:42:00,
2013-03-05 08:45:00,44.0,42.4,29.90,NW,321,0.0,0.0,94,0.00,,---,0.00,VWS V14.01,2013-03-05 13:45:00,
2013-03-05 08:47:00,46.2,45.1,29.88,NNE,18,0.0,0.0,96,0.00,,---,0.00,VWS V14.01,2013-03-05 13:47:00,
2013-03-05 08:50:00,44.1,42.5,29.90,NW,321,0.0,0.0,94,0.00,,---,0.00,VWS V14.01,2013-03-05 13:50:00,
2013-03-05 08:52:00,46.4,45.3,29.89,NNE,18,0.0,0.0,96,0.00,,---,0.00,VWS V14.01,2013-03-05 13:52:00,
2013-03-05 08:55:00,44.2,42.6,29.90,NW,321,0.0,0.0,94,0.00,,---,0.00,VWS V14.01,2013-03-05 13:55:00,
2013-03-05 08:57:00,46.4,45.3,29.89,NNE,17,1.0,2.0,96,0.00,,---,0.00,VWS V14.01,2013-03-05 13:57:00,
2013-03-05 09:00:00,44.2,42.6,29.90,NW,320,0.0,0.0,94,0.00,,---,0.00,VWS V14.01,2013-03-05 14:00:00,
2013-03-05 09:02:00,46.6,45.5,29.88,NNE,18,0.0,0.0,96,0.00,,---,0.00,VWS V14.01,2013-03-05 14:02:00,
2013-03-05 09:05:00,44.3,42.7,29.90,NW,321,0.0,0.0,94,0.00,,---,0.00,VWS V14.01,2013-03-05 14:05:00,
2013-03-05 09:07:00,46.8,45.7,29.88,NNE,18,0.0,0.0,96,0.00,,---,0.00,VWS V14.01,2013-03-05 14:07:00,
2013-03-05 09:10:00,44.4,42.8,29.89,NW,321,0.0,0.0,94,0.00,,---,0.00,VWS V14.01,2013-03-05 14:10:00,
2013-03-05 09:12:00,47.0,45.9,29.88,NNE,18,0.0,0.0,96,0.00,,---,0.00,VWS V14.01,2013-03-05 14:12:00,
2013-03-05 09:15:00,44.5,42.9,29.89,NW,320,0.0,0.0,94,0.00,,---,0.00,VWS V14.01,2013-03-05 14:15:00,
2013-03-05 09:17:00,47.1,46.0,29.88,NNE,18,0.0,0.0,96,0.00,,---,0.00,VWS V14.01,2013-03-05 14:17:00,
2013-03-05 09:20:00,45.0,43.9,29.89,SE,132,0.0,1.0,96,0.00,,---,0.00,VWS V14.01,2013-03-05 14:20:00,
2013-03-05 09:22:00,47.2,46.1,29.88,NNE,18,0.0,0.0,96,0.00,,---,0.00,VWS V14.01,2013-03-05 14:22:00,
2013-03-05 09:25:00,45.5,43.9,29.89,ENE,78,0.0,3.0,94,0.00,,---,0.00,VWS V14.01,2013-03-05 14:25:00,
2013-03-05 09:27:00,47.2,46.1,29.88,NNE,17,0.0,0.0,96,0.00,,---,0.00,VWS V14.01,2013-03-05 14:27:00,
2013-03-05 09:30:00,45.3,43.4,29.89,ENE,75,0.0,1.0,93,0.00,,---,0.00,VWS V14.01,2013-03-05 14:30:00,
2013-03-05 09:32:00,47.3,46.2,29.88,NNE,17,0.0,0.0,96,0.00,,---,0.00,VWS V14.01,2013-03-05 14:32:00,
2013-03-05 09:35:00,45.3,43.7,29.89,ENE,75,0.0,0.0,94,0.00,,---,0.00,VWS V14.01,2013-03-05 14:35:00,
2013-03-05 09:37:00,47.3,46.2,29.88,NNE,18,0.0,0.0,96,0.00,,---,0.00,VWS V14.01,2013-03-05 14:37:00,
2013-03-05 09:40:00,45.3,43.7,29.89,ENE,75,0.0,1.0,94,0.00,,---,0.00,VWS V14.01,2013-03-05 14:40:00,
2013-03-05 09:42:00,47.4,46.3,29.87,NNE,18,0.0,0.0,96,0.00,,---,0.00,VWS V14.01,2013-03-05 14:42:00,
2013-03-05 09:45:00,45.4,43.8,29.89,ENE,75,0.0,0.0,94,0.00,,---,0.00,VWS V14.01,2013-03-05 14:45:00,
2013-03-05 09:47:00,47.5,46.4,29.86,NNE,17,0.0,2.0,96,0.00,,---,0.00,VWS V14.01,2013-03-05 14:47:00,
2013-03-05 09:50:00,45.4,44.1,29.89,ENE,75,0.0,0.0,95,0.00,,---,0.00,VWS V14.01,2013-03-05 14:50:00,
2013-03-05 09:52:00,47.5,46.4,29.86,NNE,17,0.0,0.0,96,0.00,,---,0.00,VWS V14.01,2013-03-05 14:52:00,
2013-03-05 09:55:00,45.5,44.2,29.89,ENE,75,0.0,0.0,95,0.00,,---,0.00,VWS V14.01,2013-03-05 14:55:00,
2013-03-05 09:57:00,47.8,46.7,29.85,NNE,17,0.0,0.0,96,0.00,,---,0.00,VWS V14.01,2013-03-05 14:57:00,
2013-03-05 10:00:00,45.6,44.2,29.89,ENE,75,0.0,0.0,95,0.00,,---,0.00,VWS V14.01,2013-03-05 15:00:00,
2013-03-05 10:02:00,48.0,46.9,29.85,NNE,18,0.0,0.0,96,0.00,,---,0.00,VWS V14.01,2013-03-05 15:02:00,
2013-03-05 10:05:00,45.7,44.3,29.89,ENE,75,0.0,0.0,95,0.00,,---,0.00,VWS V14.01,2013-03-05 15:05:00,
2013-03-05 10:07:00,48.1,47.0,29.85,NNE,17,0.0,1.0,96,0.00,,---,0.00,VWS V14.01,2013-03-05 15:07:00,
2013-03-05 10:10:00,45.9,44.5,29.89,ENE,75,0.0,0.0,95,0.00,,---,0.00,VWS V14.01,2013-03-05 15:10:00,
2013-03-05 10:12:00,48.2,47.1,29.85,NNE,18,0.0,0.0,96,0.00,,---,0.00,VWS V14.01,2013-03-05 15:12:00,
2013-03-05 10:15:00,46.1,45.0,29.89,NNE,17,0.0,0.0,96,0.00,,---,0.00,VWS V14.01,2013-03-05 15:15:00,
2013-03-05 10:17:00,48.1,47.0,29.85,NNW,336,0.0,1.0,96,0.00,,---,0.00,VWS V14.01,2013-03-05 15:17:00,
2013-03-05 10:20:00,46.3,45.2,29.88,NNE,18,0.0,0.0,96,0.00,,---,0.00,VWS V14.01,2013-03-05 15:20:00,
2013-03-05 10:22:00,47.7,46.3,29.84,West,262,1.0,3.0,95,0.00,,---,0.00,VWS V14.01,2013-03-05 15:22:00,
2013-03-05 10:25:00,46.4,45.0,29.89,NNE,17,0.0,0.0,95,0.00,,---,0.00,VWS V14.01,2013-03-05 15:25:00,
2013-03-05 10:27:00,46.8,45.2,29.84,West,262,0.0,2.0,94,0.00,,---,0.00,VWS V14.01,2013-03-05 15:27:00,
2013-03-05 10:30:00,46.5,45.4,29.89,NNE,17,0.0,2.0,96,0.00,,---,0.00,VWS V14.01,2013-03-05 15:30:00,
2013-03-05 10:32:00,46.3,44.7,29.83,West,259,1.0,2.0,94,0.00,,---,0.00,VWS V14.01,2013-03-05 15:32:00,
2013-03-05 10:35:00,46.7,45.6,29.89,NNE,17,0.0,0.0,96,0.00,,---,0.00,VWS V14.01,2013-03-05 15:35:00,
2013-03-05 10:37:00,46.2,44.8,29.83,WSW,254,0.0,2.0,95,0.00,,---,0.00,VWS V14.01,2013-03-05 15:37:00,
2013-03-05 10:40:00,46.9,45.8,29.88,NNE,17,0.0,0.0,96,0.00,,---,0.00,VWS V14.01,2013-03-05 15:40:00,
2013-03-05 10:42:00,46.0,44.7,29.83,WSW,253,0.0,3.0,95,0.00,,---,0.00,VWS V14.01,2013-03-05 15:42:00,
2013-03-05 10:45:00,47.0,45.9,29.88,NNE,18,0.0,0.0,96,0.00,,---,0.00,VWS V14.01,2013-03-05 15:45:00,
2013-03-05 10:47:00,46.0,44.7,29.83,WSW,253,0.0,2.0,95,0.00,,---,0.00,VWS V14.01,2013-03-05 15:47:00,
2013-03-05 10:50:00,47.1,46.0,29.88,NNE,17,0.0,0.0,96,0.00,,---,0.00,VWS V14.01,2013-03-05 15:50:00,
2013-03-05 10:52:00,46.0,44.7,29.83,WSW,253,0.0,1.0,95,0.00,,---,0.00,VWS V14.01,2013-03-05 15:52:00,
2013-03-05 10:55:00,47.2,46.1,29.88,NNE,17,0.0,0.0,96,0.00,,---,0.00,VWS V14.01,2013-03-05 15:55:00,
2013-03-05 10:57:00,46.1,44.8,29.83,WSW,253,1.0,2.0,95,0.00,,---,0.00,VWS V14.01,2013-03-05 15:57:00,
2013-03-05 11:00:00,47.2,46.1,29.88,NNE,17,0.0,0.0,96,0.00,,---,0.00,VWS V14.01,2013-03-05 16:00:00,
2013-03-05 11:02:00,46.0,44.9,29.83,WNW,287,1.0,2.0,96,0.00,,---,0.00,VWS V14.01,2013-03-05 16:02:00,
2013-03-05 11:05:00,47.3,46.2,29.88,NNE,18,0.0,0.0,96,0.00,,---,0.00,VWS V14.01,2013-03-05 16:05:00,
2013-03-05 11:07:00,46.0,44.9,29.83,WNW,287,0.0,1.0,96,0.00,,---,0.00,VWS V14.01,2013-03-05 16:07:00,
2013-03-05 11:10:00,47.4,46.3,29.88,NNE,18,0.0,0.0,96,0.00,,---,0.00,VWS V14.01,2013-03-05 16:10:00,
2013-03-05 11:12:00,45.8,44.5,29.83,WNW,287,0.0,1.0,95,0.00,,---,0.00,VWS V14.01,2013-03-05 16:12:00,
2013-03-05 11:15:00,47.4,46.3,29.87,NNE,17,2.0,2.0,96,0.00,,---,0.00,VWS V14.01,2013-03-05 16:15:00,
2013-03-05 11:17:00,45.7,44.3,29.83,WNW,287,0.0,1.0,95,0.00,,---,0.00,VWS V14.01,2013-03-05 16:17:00,
2013-03-05 11:20:00,47.5,46.4,29.86,NNE,18,0.0,2.0,96,0.00,,---,0.00,VWS V14.01,2013-03-05 16:20:00,
2013-03-05 11:22:00,45.7,44.6,29.83,WNW,288,1.0,1.0,96,0.00,,---,0.00,VWS V14.01,2013-03-05 16:22:00,
2013-03-05 11:25:00,47.6,46.5,29.86,NNE,18,0.0,0.0,96,0.00,,---,0.00,VWS V14.01,2013-03-05 16:25:00,
2013-03-05 11:27:00,45.6,44.5,29.82,WNW,288,0.0,1.0,96,0.00,,---,0.00,VWS V14.01,2013-03-05 16:27:00,
2013-03-05 11:30:00,47.8,46.7,29.86,NNE,18,0.0,0.0,96,0.00,,---,0.00,VWS V14.01,2013-03-05 16:30:00,
2013-03-05 11:32:00,45.6,44.5,29.82,WNW,288,0.0,0.0,96,0.00,,---,0.00,VWS V14.01,2013-03-05 16:32:00,
2013-03-05 11:35:00,48.0,46.9,29.85,NNE,18,1.0,1.0,96,0.00,,---,0.00,VWS V14.01,2013-03-05 16:35:00,
2013-03-05 11:37:00,45.7,44.6,29.82,NW,318,1.0,1.0,96,0.00,,---,0.00,VWS V14.01,2013-03-05 16:37:00,
2013-03-05 11:40:00,48.1,47.0,29.85,NNE,18,0.0,1.0,96,0.00,,---,0.00,VWS V14.01,2013-03-05 16:40:00,
2013-03-05 11:42:00,45.9,44.8,29.81,NW,323,0.0,3.0,96,0.00,,---,0.00,VWS V14.01,2013-03-05 16:42:00,
2013-03-05 11:45:00,48.2,47.1,29.85,NNE,17,0.0,0.0,96,0.00,,---,0.00,VWS V14.01,2013-03-05 16:45:00,
2013-03-05 11:47:00,47.0,46.5,29.80,NNE,29,1.0,4.0,98,0.00,,---,0.00,VWS V14.01,2013-03-05 16:47:00,
2013-03-05 11:50:00,48.1,47.0,29.84,NNW,335,0.0,1.0,96,0.00,,---,0.00,VWS V14.01,2013-03-05 16:50:00,
2013-03-05 11:53:00,48.8,48.5,29.79,NNE,13,4.0,6.0,99,0.00,,---,0.00,VWS V14.01,2013-03-05 16:53:00,
2013-03-05 11:55:00,47.5,45.9,29.84,West,262,1.0,3.0,94,0.00,,---,0.00,VWS V14.01,2013-03-05 16:55:00,
2013-03-05 11:58:00,49.9,49.6,29.80,NE,37,5.0,7.0,99,0.00,,---,0.00,VWS V14.01,2013-03-05 16:58:00,
2013-03-05 12:00:00,46.7,45.1,29.84,West,262,1.0,2.0,94,0.00,,---,0.00,VWS V14.01,2013-03-05 17:00:00,
2013-03-05 12:03:00,50.5,50.2,29.80,ENE,78,4.0,6.0,99,0.00,,---,0.00,VWS V14.01,2013-03-05 17:03:00,
2013-03-05 12:05:00,46.3,44.7,29.83,West,259,0.0,2.0,94,0.00,,---,0.00,VWS V14.01,2013-03-05 17:05:00,
2013-03-05 12:08:00,51.0,50.7,29.80,NE,34,0.0,2.0,99,0.00,,---,0.00,VWS V14.01,2013-03-05 17:08:00,
2013-03-05 12:10:00,46.1,44.8,29.83,WSW,255,1.0,2.0,95,0.00,,---,0.00,VWS V14.01,2013-03-05 17:10:00,
2013-03-05 12:13:00,51.2,50.9,29.80,ENE,66,0.0,3.0,99,0.00,,---,0.00,VWS V14.01,2013-03-05 17:13:00,
2013-03-05 12:15:00,46.0,44.7,29.83,WSW,253,1.0,3.0,95,0.00,,---,0.00,VWS V14.01,2013-03-05 17:15:00,
2013-03-05 12:18:00,50.7,50.4,29.80,SE,138,0.0,5.0,99,0.00,,---,0.00,VWS V14.01,2013-03-05 17:18:00,
2013-03-05 12:20:00,46.0,44.7,29.83,WSW,253,0.0,2.0,95,0.00,,---,0.00,VWS V14.01,2013-03-05 17:20:00,
2013-03-05 12:23:00,50.2,49.4,29.80,SE,136,0.0,1.0,97,0.00,,---,0.00,VWS V14.01,2013-03-05 17:23:00,
2013-03-05 12:25:00,46.1,44.8,29.83,WSW,253,1.0,1.0,95,0.00,,---,0.00,VWS V14.01,2013-03-05 17:25:00,
2013-03-05 12:28:00,50.0,49.2,29.82,SE,138,1.0,2.0,97,0.00,,---,0.00,VWS V14.01,2013-03-05 17:28:00,
2013-03-05 12:30:00,46.1,44.8,29.83,WSW,253,1.0,2.0,95,0.00,,---,0.00,VWS V14.01,2013-03-05 17:30:00,
2013-03-05 12:33:00,49.4,48.3,29.79,NW,318,4.0,5.0,96,0.00,,---,0.00,VWS V14.01,2013-03-05 17:33:00,
2013-03-05 12:35:00,46.0,44.7,29.83,WNW,287,0.0,2.0,95,0.00,,---,0.00,VWS V14.01,2013-03-05 17:35:00,
2013-03-05 12:38:00,49.1,48.3,29.74,West,270,3.0,8.0,97,0.00,,---,0.00,VWS V14.01,2013-03-05 17:38:00,
2013-03-05 12:40:00,46.0,44.9,29.83,WNW,286,0.0,1.0,96,0.00,,---,0.00,VWS V14.01,2013-03-05 17:40:00,
2013-03-05 12:43:00,49.8,49.3,29.75,ESE,113,5.0,6.0,98,0.00,,---,0.00,VWS V14.01,2013-03-05 17:43:00,
2013-03-05 12:45:00,45.8,44.5,29.83,WNW,287,0.0,1.0,95,0.00,,---,0.00,VWS V14.01,2013-03-05 17:45:00,
2013-03-05 12:48:00,51.0,50.7,29.75,North,349,2.0,8.0,99,0.00,,---,0.00,VWS V14.01,2013-03-05 17:48:00,
2013-03-05 12:50:00,45.7,44.3,29.83,WNW,287,0.0,1.0,95,0.00,,---,0.00,VWS V14.01,2013-03-05 17:50:00,
2013-03-05 12:53:00,51.7,51.4,29.74,NW,322,0.0,2.0,99,0.00,,---,0.00,VWS V14.01,2013-03-05 17:53:00,
2013-03-05 12:55:00,45.7,44.6,29.83,WNW,288,0.0,1.0,96,0.00,,---,0.00,VWS V14.01,2013-03-05 17:55:00,
2013-03-05 12:58:00,52.1,51.8,29.75,NNW,327,5.0,5.0,99,0.00,,---,0.00,VWS V14.01,2013-03-05 17:58:00,
2013-03-05 13:00:00,45.6,44.5,29.82,WNW,288,0.0,1.0,96,0.00,,---,0.00,VWS V14.01,2013-03-05 18:00:00,
2013-03-05 13:03:00,52.4,52.1,29.74,North,350,0.0,3.0,99,0.00,,---,0.00,VWS V14.01,2013-03-05 18:03:00,
2013-03-05 13:05:00,45.6,44.5,29.82,WNW,288,0.0,0.0,96,0.00,,---,0.00,VWS V14.01,2013-03-05 18:05:00,
2013-03-05 13:08:00,52.5,52.2,29.74,NW,315,0.0,1.0,99,0.00,,---,0.00,VWS V14.01,2013-03-05 18:08:00,
2013-03-05 13:10:00,45.7,44.6,29.82,NNW,330,2.0,2.0,96,0.00,,---,0.00,VWS V14.01,2013-03-05 18:10:00,
2013-03-05 13:13:00,52.6,52.3,29.73,NW,315,0.0,0.0,99,0.00,,---,0.00,VWS V14.01,2013-03-05 18:13:00,
2013-03-05 13:15:00,46.0,45.2,29.80,West,259,3.0,6.0,97,0.00,,---,0.00,VWS V14.01,2013-03-05 18:15:00,
2013-03-05 13:18:00,52.6,52.3,29.73,NW,323,1.0,3.0,99,0.00,,---,0.00,VWS V14.01,2013-03-05 18:18:00,
2013-03-05 13:20:00,47.4,46.9,29.80,NNE,27,4.0,4.0,98,0.00,,---,0.00,VWS V14.01,2013-03-05 18:20:00,
2013-03-05 13:23:00,51.8,50.7,29.72,West,264,1.0,3.0,96,0.00,,---,0.00,VWS V14.01,2013-03-05 18:23:00,
2013-03-05 13:25:00,49.0,48.7,29.78,NW,309,4.0,6.0,99,0.00,,---,0.00,VWS V14.01,2013-03-05 18:25:00,
2013-03-05 13:28:00,49.8,48.2,29.70,West,274,0.0,2.0,94,0.00,,---,0.00,VWS V14.01,2013-03-05 18:28:00,
2013-03-05 13:30:00,50.0,49.7,29.80,NNE,15,1.0,7.0,99,0.00,,---,0.00,VWS V14.01,2013-03-05 18:30:00,
2013-03-05 13:33:00,48.8,47.7,29.71,West,268,1.0,2.0,96,0.00,,---,0.00,VWS V14.01,2013-03-05 18:33:00,
2013-03-05 13:35:00,52.4,52.1,29.74,North,349,0.0,3.0,99,0.00,,---,0.00,VWS V14.01,2013-03-05 18:35:00,
2013-03-05 13:38:00,48.5,47.4,29.71,WSW,252,1.0,4.0,96,0.00,,---,0.00,VWS V14.01,2013-03-05 18:38:00,
2013-03-05 13:40:00,52.5,52.2,29.74,NW,315,0.0,1.0,99,0.00,,---,0.00,VWS V14.01,2013-03-05 18:40:00,
2013-03-05 13:43:00,48.2,47.4,29.71,WNW,282,1.0,2.0,97,0.00,,---,0.00,VWS V14.01,2013-03-05 18:43:00,
2013-03-05 13:45:00,51.2,50.9,29.80,ENE,67,0.0,3.0,99,0.00,,---,0.00,VWS V14.01,2013-03-05 18:45:00,
2013-03-05 13:48:00,48.1,47.3,29.69,NW,322,1.0,1.0,97,0.00,,---,0.00,VWS V14.01,2013-03-05 18:48:00,
2013-03-05 13:50:00,50.6,50.3,29.80,SE,138,0.0,5.0,99,0.00,,---,0.00,VWS V14.01,2013-03-05 18:50:00,
2013-03-05 13:53:00,48.1,47.3,29.69,NNW,327,0.0,1.0,97,0.00,,---,0.00,VWS V14.01,2013-03-05 18:53:00,
2013-03-05 13:55:00,50.1,49.3,29.80,SE,137,0.0,1.0,97,0.00,,---,0.00,VWS V14.01,2013-03-05 18:55:00,
2013-03-05 13:58:00,48.1,47.6,29.68,NNW,327,0.0,0.0,98,0.00,,---,0.00,VWS V14.01,2013-03-05 18:58:00,
2013-03-05 14:00:00,50.0,49.2,29.82,SE,138,0.0,2.0,97,0.00,,---,0.00,VWS V14.01,2013-03-05 19:00:00,
2013-03-05 14:04:00,48.2,47.7,29.68,NNW,327,0.0,1.0,98,0.00,,---,0.00,VWS V14.01,2013-03-05 19:04:00,
2013-03-05 14:05:00,49.3,48.2,29.79,NNW,339,2.0,5.0,96,0.00,,---,0.00,VWS V14.01,2013-03-05 19:05:00,
2013-03-05 14:09:00,48.3,47.8,29.67,NNW,328,0.0,1.0,98,0.00,,---,0.00,VWS V14.01,2013-03-05 19:09:00,
2013-03-05 14:10:00,49.1,48.3,29.74,WNW,293,3.0,8.0,97,0.00,,---,0.00,VWS V14.01,2013-03-05 19:10:00,
2013-03-05 14:14:00,48.3,47.8,29.67,NNW,328,0.0,1.0,98,0.00,,---,0.00,VWS V14.01,2013-03-05 19:14:00,
2013-03-05 14:15:00,49.8,49.3,29.75,SE,135,4.0,6.0,98,0.00,,---,0.00,VWS V14.01,2013-03-05 19:15:00,
2013-03-05 14:19:00,48.3,47.8,29.66,NNW,327,0.0,1.0,98,0.00,,---,0.00,VWS V14.01,2013-03-05 19:19:00,
2013-03-05 14:20:00,51.1,50.8,29.75,North,4,0.0,8.0,99,0.00,,---,0.00,VWS V14.01,2013-03-05 19:20:00,
2013-03-05 14:24:00,48.3,47.8,29.66,NNW,327,0.0,1.0,98,0.00,,---,0.00,VWS V14.01,2013-03-05 19:24:00,
2013-03-05 14:25:00,51.7,51.4,29.74,NW,322,0.0,2.0,99,0.00,,---,0.00,VWS V14.01,2013-03-05 19:25:00,
2013-03-05 14:28:00,48.1,47.6,29.65,West,274,1.0,2.0,98,0.00,,---,0.00,VWS V14.01,2013-03-05 19:28:00,
2013-03-05 14:30:00,52.1,51.8,29.75,North,352,1.0,5.0,99,0.00,,---,0.00,VWS V14.01,2013-03-05 19:30:00,
2013-03-05 14:34:00,47.6,46.8,29.66,West,260,0.0,3.0,97,0.00,,---,0.00,VWS V14.01,2013-03-05 19:34:00,
2013-03-05 14:35:00,52.4,52.1,29.74,North,349,0.0,3.0,99,0.00,,---,0.00,VWS V14.01,2013-03-05 19:35:00,
2013-03-05 14:39:00,47.5,47.0,29.67,SE,125,4.0,4.0,98,0.00,,---,0.00,VWS V14.01,2013-03-05 19:39:00,
2013-03-05 14:40:00,52.5,52.2,29.74,NW,315,0.0,1.0,99,0.00,,---,0.00,VWS V14.01,2013-03-05 19:40:00,
2013-03-05 14:44:00,47.7,47.2,29.66,West,270,0.0,4.0,98,0.00,,---,0.00,VWS V14.01,2013-03-05 19:44:00,
2013-03-05 14:45:00,52.6,52.3,29.73,NNW,345,2.0,2.0,99,0.00,,---,0.00,VWS V14.01,2013-03-05 19:45:00,
2013-03-05 14:49:00,47.7,47.2,29.66,NW,316,0.0,1.0,98,0.00,,---,0.00,VWS V14.01,2013-03-05 19:49:00,
2013-03-05 14:50:00,52.6,52.0,29.73,NW,325,0.0,3.0,98,0.00,,---,0.00,VWS V14.01,2013-03-05 19:50:00,
2013-03-05 14:54:00,47.7,47.2,29.67,NE,43,0.0,1.0,98,0.00,,---,0.00,VWS V14.01,2013-03-05 19:54:00,
2013-03-05 14:55:00,51.6,50.2,29.72,West,264,2.0,3.0,95,0.00,,---,0.00,VWS V14.01,2013-03-05 19:55:00,
2013-03-05 14:59:00,47.8,47.3,29.67,NNW,348,0.0,2.0,98,0.00,,---,0.00,VWS V14.01,2013-03-05 19:59:00,
2013-03-05 15:00:00,49.7,48.0,29.70,West,273,1.0,2.0,94,0.00,,---,0.00,VWS V14.01,2013-03-05 20:00:00,
2013-03-05 15:04:00,47.8,47.3,29.68,North,350,0.0,1.0,98,0.00,,---,0.00,VWS V14.01,2013-03-05 20:04:00,
2013-03-05 15:05:00,48.8,47.7,29.71,West,268,1.0,2.0,96,0.00,,---,0.00,VWS V14.01,2013-03-05 20:05:00,
2013-03-05 15:09:00,47.9,47.4,29.68,NNW,348,0.0,1.0,98,0.00,,---,0.00,VWS V14.01,2013-03-05 20:09:00,
2013-03-05 15:10:00,48.4,47.3,29.71,WSW,252,1.0,4.0,96,0.00,,---,0.00,VWS V14.01,2013-03-05 20:10:00,
2013-03-05 15:14:00,48.1,47.8,29.67,WNW,287,3.0,4.0,99,0.00,,---,0.00,VWS V14.01,2013-03-05 20:14:00,
2013-03-05 15:15:00,48.1,47.3,29.71,NW,316,0.0,2.0,97,0.00,,---,0.00,VWS V14.01,2013-03-05 20:15:00,
2013-03-05 15:19:00,48.3,48.0,29.63,South,169,0.0,5.0,99,0.00,,---,0.00,VWS V14.01,2013-03-05 20:19:00,
2013-03-05 15:20:00,48.1,47.3,29.69,NNW,327,1.0,1.0,97,0.00,,---,0.00,VWS V14.01,2013-03-05 20:20:00,
2013-03-05 15:24:00,48.9,48.6,29.66,East,82,4.0,5.0,99,0.00,,---,0.00,VWS V14.01,2013-03-05 20:24:00,
2013-03-05 15:25:00,48.1,47.6,29.69,NNW,328,0.0,1.0,98,0.00,,---,0.00,VWS V14.01,2013-03-05 20:25:00,
2013-03-05 15:29:00,50.5,50.2,29.68,SSE,152,17.0,23.0,99,0.00,,---,0.00,VWS V14.01,2013-03-05 20:29:00,
2013-03-05 15:30:00,48.1,47.6,29.68,NNW,327,1.0,1.0,98,0.00,,---,0.00,VWS V14.01,2013-03-05 20:30:00,
2013-03-05 15:34:00,52.8,52.5,29.68,ESE,113,8.0,21.0,99,0.00,,---,0.00,VWS V14.01,2013-03-05 20:34:00,
2013-03-05 15:35:00,48.2,47.7,29.68,NNW,328,0.0,1.0,98,0.00,,---,0.00,VWS V14.01,2013-03-05 20:35:00,
2013-03-05 15:39:00,54.6,51.4,29.68,ESE,111,11.0,20.0,89,0.00,,---,0.00,VWS V14.01,2013-03-05 20:39:00,
2013-03-05 15:40:00,48.3,47.8,29.67,NNW,328,0.0,1.0,98,0.00,,---,0.00,VWS V14.01,2013-03-05 20:40:00,
2013-03-05 15:44:00,55.3,51.5,29.68,SSE,162,4.0,24.0,87,0.00,,---,0.00,VWS V14.01,2013-03-05 20:44:00,
2013-03-05 15:45:00,48.3,47.8,29.67,NNW,327,0.0,1.0,98,0.00,,---,0.00,VWS V14.01,2013-03-05 20:45:00,
2013-03-05 15:49:00,55.3,50.9,29.67,SSE,148,2.0,14.0,85,0.00,,---,0.00,VWS V14.01,2013-03-05 20:49:00,
2013-03-05 15:50:00,48.3,47.8,29.66,NNW,327,0.0,1.0,98,0.00,,---,0.00,VWS V14.01,2013-03-05 20:50:00,
2013-03-05 15:54:00,55.4,51.3,29.66,NE,50,3.0,11.0,86,0.00,,---,0.00,VWS V14.01,2013-03-05 20:54:00,
2013-03-05 15:55:00,48.3,47.8,29.66,NNW,327,0.0,1.0,98,0.00,,---,0.00,VWS V14.01,2013-03-05 20:55:00,
2013-03-05 15:59:00,55.8,51.7,29.65,SW,226,1.0,9.0,86,0.00,,---,0.00,VWS V14.01,2013-03-05 20:59:00,
2013-03-05 16:00:00,48.1,47.6,29.65,West,274,1.0,2.0,98,0.00,,---,0.00,VWS V14.01,2013-03-05 21:00:00,
2013-03-05 16:04:00,55.8,50.7,29.65,East,95,3.0,12.0,83,0.00,,---,0.00,VWS V14.01,2013-03-05 21:04:00,
2013-03-05 16:05:00,47.6,46.8,29.66,West,260,0.0,3.0,97,0.00,,---,0.00,VWS V14.01,2013-03-05 21:05:00,
2013-03-05 16:09:00,55.6,50.5,29.66,East,85,2.0,9.0,83,0.00,,---,0.00,VWS V14.01,2013-03-05 21:09:00,
2013-03-05 16:10:00,47.5,47.0,29.67,ESE,110,4.0,4.0,98,0.00,,---,0.00,VWS V14.01,2013-03-05 21:10:00,
2013-03-05 16:14:00,55.4,50.3,29.66,East,80,7.0,12.0,83,0.00,,---,0.00,VWS V14.01,2013-03-05 21:14:00,
2013-03-05 16:15:00,47.7,47.2,29.66,West,270,0.0,4.0,98,0.00,,---,0.00,VWS V14.01,2013-03-05 21:15:00,
2013-03-05 16:19:00,56.1,50.7,29.66,East,83,9.0,17.0,82,0.00,,---,0.00,VWS V14.01,2013-03-05 21:19:00,
2013-03-05 16:20:00,47.7,47.2,29.66,NW,316,0.0,1.0,98,0.00,,---,0.00,VWS V14.01,2013-03-05 21:20:00,
2013-03-05 16:24:00,57.0,50.2,29.67,ENE,65,2.0,18.0,78,0.00,,---,0.00,VWS V14.01,2013-03-05 21:24:00,
2013-03-05 16:25:00,47.7,47.2,29.67,NE,43,0.0,1.0,98,0.00,,---,0.00,VWS V14.01,2013-03-05 21:25:00,
2013-03-05 16:29:00,57.6,50.8,29.66,NE,46,2.0,16.0,78,0.00,,---,0.00,VWS V14.01,2013-03-05 21:29:00,
2013-03-05 16:30:00,47.8,47.3,29.67,NNW,348,0.0,2.0,98,0.00,,---,0.00,VWS V14.01,2013-03-05 21:30:00,
2013-03-05 16:34:00,57.8,50.3,29.67,ESE,109,9.0,17.0,76,0.00,,---,0.00,VWS V14.01,2013-03-05 21:34:00,
2013-03-05 16:35:00,47.8,47.3,29.68,North,350,0.0,1.0,98,0.00,,---,0.00,VWS V14.01,2013-03-05 21:35:00,
2013-03-05 16:39:00,57.4,49.2,29.67,SE,138,5.0,24.0,74,0.00,,---,0.00,VWS V14.01,2013-03-05 21:39:00,
2013-03-05 16:40:00,47.9,47.4,29.68,NNW,348,0.0,1.0,98,0.00,,---,0.00,VWS V14.01,2013-03-05 21:40:00,
2013-03-05 16:44:00,57.0,48.4,29.68,SE,132,3.0,18.0,73,0.00,,---,0.00,VWS V14.01,2013-03-05 21:44:00,
2013-03-05 16:45:00,48.1,47.8,29.67,WNW,287,3.0,4.0,99,0.00,,---,0.00,VWS V14.01,2013-03-05 21:45:00,
2013-03-05 16:49:00,56.4,48.6,29.68,East,95,14.0,17.0,75,0.00,,---,0.00,VWS V14.01,2013-03-05 21:49:00,
2013-03-05 16:50:00,48.3,48.0,29.63,South,169,0.0,5.0,99,0.00,,---,0.00,VWS V14.01,2013-03-05 21:50:00,
2013-03-05 16:54:00,55.6,48.5,29.69,West,269,10.0,26.0,77,0.00,,---,0.00,VWS V14.01,2013-03-05 21:54:00,
2013-03-05 16:55:00,48.9,48.6,29.66,East,82,4.0,5.0,99,0.00,,---,0.00,VWS V14.01,2013-03-05 21:55:00,
2013-03-05 16:59:00,55.0,48.6,29.70,East,97,5.0,22.0,79,0.00,,---,0.00,VWS V14.01,2013-03-05 21:59:00,
2013-03-05 17:00:00,50.5,50.2,29.68,SSE,152,17.0,23.0,99,0.00,,---,0.00,VWS V14.01,2013-03-05 22:00:00,
2013-03-05 17:04:00,54.5,48.1,29.71,ESE,110,5.0,6.0,79,0.00,,---,0.00,VWS V14.01,2013-03-05 22:04:00,
2013-03-05 17:05:00,52.8,52.5,29.68,ESE,113,8.0,21.0,99,0.00,,---,0.00,VWS V14.01,2013-03-05 22:05:00,
2013-03-05 17:09:00,53.8,47.1,29.72,SSE,162,11.0,22.0,78,0.00,,---,0.00,VWS V14.01,2013-03-05 22:09:00,
2013-03-05 17:10:00,54.6,51.4,29.68,ESE,110,24.0,24.0,89,0.00,,---,0.00,VWS V14.01,2013-03-05 22:10:00,
2013-03-05 17:14:00,53.1,46.4,29.73,South,176,4.0,4.0,78,0.00,,---,0.00,VWS V14.01,2013-03-05 22:14:00,
2013-03-05 17:15:00,55.3,51.5,29.68,SSE,162,4.0,24.0,87,0.00,,---,0.00,VWS V14.01,2013-03-05 22:15:00,
2013-03-05 17:19:00,52.4,46.4,29.74,SE,146,10.0,10.0,80,0.00,,---,0.00,VWS V14.01,2013-03-05 22:19:00,
2013-03-05 17:20:00,55.3,50.9,29.67,SSE,148,2.0,14.0,85,0.00,,---,0.00,VWS V14.01,2013-03-05 22:20:00,
2013-03-05 17:24:00,51.8,45.8,29.74,ESE,105,14.0,20.0,80,0.00,,---,0.00,VWS V14.01,2013-03-05 22:24:00,
2013-03-05 17:25:00,55.4,51.3,29.66,NE,50,3.0,11.0,86,0.00,,---,0.00,VWS V14.01,2013-03-05 22:25:00,
2013-03-05 17:29:00,51.4,45.8,29.75,SE,131,4.0,6.0,81,0.00,,---,0.00,VWS V14.01,2013-03-05 22:29:00,
2013-03-05 17:30:00,55.0,48.6,29.70,East,97,5.0,22.0,79,0.00,,---,0.00,VWS V14.01,2013-03-05 22:30:00,
2013-03-05 17:34:00,50.7,45.1,29.75,ESE,118,12.0,17.0,81,0.00,,---,0.00,VWS V14.01,2013-03-05 22:34:00,
2013-03-05 17:35:00,55.8,50.7,29.65,ESE,102,3.0,12.0,83,0.00,,---,0.00,VWS V14.01,2013-03-05 22:35:00,
2013-03-05 17:39:00,49.8,44.5,29.76,East,93,10.0,16.0,82,0.00,,---,0.00,VWS V14.01,2013-03-05 22:39:00,
2013-03-05 17:40:00,55.6,50.5,29.66,East,85,2.0,9.0,83,0.00,,---,0.00,VWS V14.01,2013-03-05 22:40:00,
2013-03-05 17:44:00,48.7,43.5,29.77,ESE,102,15.0,15.0,82,0.00,,---,0.00,VWS V14.01,2013-03-05 22:44:00,
2013-03-05 17:45:00,55.4,50.3,29.66,East,80,7.0,12.0,83,0.00,,---,0.00,VWS V14.01,2013-03-05 22:45:00,
2013-03-05 17:49:00,48.1,42.2,29.77,NNW,342,2.0,12.0,80,0.00,,---,0.00,VWS V14.01,2013-03-05 22:49:00,
2013-03-05 17:50:00,56.1,50.7,29.66,East,83,9.0,17.0,82,0.00,,---,0.00,VWS V14.01,2013-03-05 22:50:00,
2013-03-05 17:54:00,47.8,42.3,29.78,WSW,242,3.0,5.0,81,0.00,,---,0.00,VWS V14.01,2013-03-05 22:54:00,
2013-03-05 17:55:00,57.0,50.2,29.67,ENE,65,2.0,18.0,78,0.00,,---,0.00,VWS V14.01,2013-03-05 22:55:00,
2013-03-05 17:59:00,47.4,41.9,29.79,East,95,2.0,10.0,81,0.00,,---,0.00,VWS V14.01,2013-03-05 22:59:00,
2013-03-05 18:00:00,57.6,50.8,29.66,NE,46,2.0,16.0,78,0.00,,---,0.00,VWS V14.01,2013-03-05 23:00:00,
2013-03-05 18:04:00,47.0,41.5,29.80,East,95,4.0,5.0,81,0.00,,---,0.00,VWS V14.01,2013-03-05 23:04:00,
2013-03-05 18:05:00,57.8,50.3,29.67,ESE,113,7.0,17.0,76,0.00,,---,0.00,VWS V14.01,2013-03-05 23:05:00,
2013-03-05 18:09:00,46.5,41.0,29.81,SE,124,10.0,11.0,81,0.00,,---,0.00,VWS V14.01,2013-03-05 23:09:00,
2013-03-05 18:10:00,57.4,49.2,29.67,SE,138,5.0,24.0,74,0.00,,---,0.00,VWS V14.01,2013-03-05 23:10:00,
2013-03-05 18:14:00,45.9,40.7,29.82,NNW,330,3.0,5.0,82,0.00,,---,0.00,VWS V14.01,2013-03-05 23:14:00,
2013-03-05 18:15:00,57.0,48.4,29.68,SE,132,3.0,18.0,73,0.00,,---,0.00,VWS V14.01,2013-03-05 23:15:00,
2013-03-05 18:19:00,44.9,39.8,29.83,ESE,109,8.0,8.0,82,0.00,,---,0.00,VWS V14.01,2013-03-05 23:19:00,
2013-03-05 18:20:00,56.4,48.6,29.68,East,95,14.0,17.0,75,0.00,,---,0.00,VWS V14.01,2013-03-05 23:20:00,
2013-03-05 18:24:00,44.1,39.6,29.84,East,82,3.0,7.0,84,0.00,,---,0.00,VWS V14.01,2013-03-05 23:24:00,
2013-03-05 18:25:00,55.6,48.5,29.69,West,269,10.0,26.0,77,0.00,,---,0.00,VWS V14.01,2013-03-05 23:25:00,
2013-03-05 18:29:00,43.7,39.5,29.84,ESE,105,8.0,8.0,85,0.00,,---,0.00,VWS V14.01,2013-03-05 23:29:00,
2013-03-05 18:30:00,55.0,48.6,29.70,East,97,5.0,22.0,79,0.00,,---,0.00,VWS V14.01,2013-03-05 23:30:00,
2013-03-05 18:34:00,43.4,39.5,29.85,SE,141,2.0,6.0,86,0.00,,---,0.00,VWS V14.01,2013-03-05 23:34:00,
2013-03-05 18:35:00,54.5,48.1,29.71,NE,53,6.0,20.0,79,0.00,,---,0.00,VWS V14.01,2013-03-05 23:35:00,
2013-03-05 18:39:00,43.1,38.3,29.86,SE,143,5.0,15.0,83,0.00,,---,0.00,VWS V14.01,2013-03-05 23:39:00,
2013-03-05 18:40:00,53.8,47.1,29.72,SSE,162,11.0,22.0,78,0.00,,---,0.00,VWS V14.01,2013-03-05 23:40:00,
2013-03-05 18:44:00,42.7,37.9,29.86,SSE,159,6.0,7.0,83,0.00,,---,0.00,VWS V14.01,2013-03-05 23:44:00,
2013-03-05 18:45:00,53.1,46.4,29.73,SE,131,3.0,19.0,78,0.00,,---,0.00,VWS V14.01,2013-03-05 23:45:00,
2013-03-05 18:49:00,42.5,37.7,29.87,ENE,73,2.0,7.0,83,0.00,,---,0.00,VWS V14.01,2013-03-05 23:49:00,
2013-03-05 18:50:00,52.4,46.4,29.73,ESE,109,4.0,25.0,80,0.00,,---,0.00,VWS V14.01,2013-03-05 23:50:00,
2013-03-05 18:54:00,42.1,37.3,29.88,SE,142,5.0,10.0,83,0.00,,---,0.00,VWS V14.01,2013-03-05 23:54:00,
2013-03-05 18:55:00,51.8,45.8,29.74,SE,146,16.0,16.0,80,0.00,,---,0.00,VWS V14.01,2013-03-05 23:55:00,
2013-03-05 18:59:00,41.4,36.0,29.89,ESE,116,5.0,11.0,81,0.00,,---,0.00,VWS V14.01,2013-03-05 23:59:00,
2013-03-05 19:00:00,51.4,45.5,29.75,East,86,6.0,20.0,80,0.00,,---,0.00,VWS V14.01,2013-03-06 00:00:00,
2013-03-05 19:04:00,41.0,36.2,29.89,East,101,1.0,18.0,83,0.00,,---,0.00,VWS V14.01,2013-03-06 00:04:00,
2013-03-05 19:05:00,50.7,45.1,29.75,SE,139,14.0,21.0,81,0.00,,---,0.00,VWS V14.01,2013-03-06 00:05:00,
2013-03-05 19:09:00,40.4,35.7,29.90,ESE,102,4.0,6.0,83,0.00,,---,0.00,VWS V14.01,2013-03-06 00:09:00,
2013-03-05 19:10:00,49.8,44.5,29.76,SE,129,16.0,26.0,82,0.00,,---,0.00,VWS V14.01,2013-03-06 00:10:00,
2013-03-05 19:14:00,40.0,35.6,29.91,West,267,3.0,5.0,84,0.00,,---,0.00,VWS V14.01,2013-03-06 00:14:00,
2013-03-05 19:15:00,48.8,43.6,29.77,ESE,107,2.0,22.0,82,0.00,,---,0.00,VWS V14.01,2013-03-06 00:15:00,
2013-03-05 19:19:00,39.7,35.0,29.91,ESE,102,4.0,8.0,83,0.00,,---,0.00,VWS V14.01,2013-03-06 00:19:00,
2013-03-05 19:20:00,48.1,42.2,29.77,ESE,108,12.0,20.0,80,0.00,,---,0.00,VWS V14.01,2013-03-06 00:20:00,
2013-03-05 19:24:00,39.5,35.4,29.91,ESE,109,9.0,14.0,85,0.00,,---,0.00,VWS V14.01,2013-03-06 00:24:00,
2013-03-05 19:25:00,47.8,42.3,29.78,ESE,103,5.0,21.0,81,0.00,,---,0.00,VWS V14.01,2013-03-06 00:25:00,
2013-03-05 19:29:00,39.3,34.6,29.91,SSE,162,4.0,23.0,83,0.00,,---,0.00,VWS V14.01,2013-03-06 00:29:00,
2013-03-05 19:30:00,47.4,41.5,29.79,SE,124,9.0,22.0,80,0.00,,---,0.00,VWS V14.01,2013-03-06 00:30:00,
2013-03-05 19:34:00,39.1,34.4,29.92,SE,139,4.0,14.0,83,0.00,,---,0.00,VWS V14.01,2013-03-06 00:34:00,
2013-03-05 19:35:00,47.0,41.5,29.80,ENE,73,5.0,19.0,81,0.00,,---,0.00,VWS V14.01,2013-03-06 00:35:00,
2013-03-05 19:39:00,39.0,34.6,29.93,East,90,13.0,13.0,84,0.00,,---,0.00,VWS V14.01,2013-03-06 00:39:00,
2013-03-05 19:40:00,46.5,41.0,29.81,East,98,10.0,20.0,81,0.00,,---,0.00,VWS V14.01,2013-03-06 00:40:00,
2013-03-05 19:44:00,38.8,33.8,29.93,East,98,0.0,2.0,82,0.00,,---,0.00,VWS V14.01,2013-03-06 00:44:00,
2013-03-05 19:45:00,45.9,40.7,29.82,SE,143,5.0,19.0,82,0.00,,---,0.00,VWS V14.01,2013-03-06 00:45:00,
2013-03-05 19:49:00,38.6,33.0,29.93,SE,131,12.0,15.0,80,0.00,,---,0.00,VWS V14.01,2013-03-06 00:49:00,
2013-03-05 19:50:00,45.0,39.8,29.83,West,269,5.0,21.0,82,0.00,,---,0.00,VWS V14.01,2013-03-06 00:50:00,
2013-03-05 19:54:00,38.5,33.2,29.94,SE,125,9.0,9.0,81,0.00,,---,0.00,VWS V14.01,2013-03-06 00:54:00,
2013-03-05 19:55:00,44.1,39.6,29.83,SE,144,5.0,18.0,84,0.00,,---,0.00,VWS V14.01,2013-03-06 00:55:00,
2013-03-05 19:59:00,38.4,32.5,29.93,ESE,105,11.0,28.0,79,0.00,,---,0.00,VWS V14.01,2013-03-06 00:59:00,
2013-03-05 20:00:00,43.7,39.5,29.84,ESE,105,8.0,11.0,85,0.00,,---,0.00,VWS V14.01,2013-03-06 01:00:00,
2013-03-05 20:04:00,38.3,32.7,29.93,East,82,5.0,5.0,80,0.00,,---,0.00,VWS V14.01,2013-03-06 01:04:00,
2013-03-05 20:05:00,43.5,39.3,29.85,ENE,74,5.0,15.0,85,0.00,,---,0.00,VWS V14.01,2013-03-06 01:05:00,
2013-03-05 20:09:00,38.1,32.5,29.93,ESE,108,3.0,5.0,80,0.00,,---,0.00,VWS V14.01,2013-03-06 01:09:00,
2013-03-05 20:10:00,43.1,38.6,29.85,SSE,153,11.0,28.0,84,0.00,,---,0.00,VWS V14.01,2013-03-06 01:10:00,
2013-03-05 20:14:00,38.1,31.9,29.94,ESE,106,7.0,14.0,78,0.00,,---,0.00,VWS V14.01,2013-03-06 01:14:00,
2013-03-05 20:15:00,42.7,37.9,29.86,NW,322,1.0,17.0,83,0.00,,---,0.00,VWS V14.01,2013-03-06 01:15:00,
2013-03-05 20:19:00,38.1,31.5,29.94,East,96,4.0,9.0,77,0.00,,---,0.00,VWS V14.01,2013-03-06 01:19:00,
2013-03-05 20:20:00,42.5,38.0,29.87,SE,141,4.0,15.0,84,0.00,,---,0.00,VWS V14.01,2013-03-06 01:20:00,
2013-03-05 20:24:00,38.1,31.9,29.94,ENE,64,4.0,6.0,78,0.00,,---,0.00,VWS V14.01,2013-03-06 01:24:00,
2013-03-05 20:25:00,42.2,37.4,29.87,SSE,162,5.0,11.0,83,0.00,,---,0.00,VWS V14.01,2013-03-06 01:25:00,
2013-03-05 20:30:00,38.0,31.8,29.94,ESE,117,3.0,4.0,78,0.00,,---,0.00,VWS V14.01,2013-03-06 01:30:00,
2013-03-05 20:35:00,38.0,31.4,29.95,SE,125,4.0,10.0,77,0.00,,---,0.00,VWS V14.01,2013-03-06 01:35:00,
2013-03-05 20:40:00,38.0,30.8,29.94,NNW,330,1.0,9.0,75,0.00,,---,0.00,VWS V14.01,2013-03-06 01:40:00,
2013-03-05 20:45:00,38.0,30.8,29.95,NE,44,2.0,5.0,75,0.00,,---,0.00,VWS V14.01,2013-03-06 01:45:00,
2013-03-05 20:50:00,38.0,30.5,29.95,ESE,115,8.0,8.0,74,0.00,,---,0.00,VWS V14.01,2013-03-06 01:50:00,
2013-03-05 20:55:00,38.0,30.5,29.95,East,89,3.0,15.0,74,0.00,,---,0.00,VWS V14.01,2013-03-06 01:55:00,
2013-03-05 21:00:00,38.0,30.5,29.95,ESE,121,2.0,5.0,74,0.00,,---,0.00,VWS V14.01,2013-03-06 02:00:00,
2013-03-05 21:05:00,38.0,30.5,29.94,ESE,110,1.0,6.0,74,0.00,,---,0.00,VWS V14.01,2013-03-06 02:05:00,
2013-03-05 21:10:00,37.9,31.0,29.94,ESE,114,11.0,11.0,76,0.00,,---,0.00,VWS V14.01,2013-03-06 02:10:00,
2013-03-05 21:15:00,38.0,30.5,29.94,ESE,120,12.0,12.0,74,0.00,,---,0.00,VWS V14.01,2013-03-06 02:15:00,
2013-03-05 21:20:00,38.0,30.5,29.94,ESE,118,8.0,9.0,74,0.00,,---,0.00,VWS V14.01,2013-03-06 02:20:00,
2013-03-05 21:25:00,38.0,30.8,29.94,ESE,103,6.0,6.0,75,0.00,,---,0.00,VWS V14.01,2013-03-06 02:25:00,
2013-03-05 21:30:00,38.0,30.5,29.94,SE,137,2.0,10.0,74,0.00,,---,0.00,VWS V14.01,2013-03-06 02:30:00,
2013-03-05 21:35:00,38.0,30.5,29.94,ESE,109,7.0,9.0,74,0.00,,---,0.00,VWS V14.01,2013-03-06 02:35:00,
2013-03-05 21:40:00,38.0,30.1,29.94,NNE,18,1.0,7.0,73,0.00,,---,0.00,VWS V14.01,2013-03-06 02:40:00,
2013-03-05 21:45:00,38.0,30.5,29.94,WNW,293,1.0,2.0,74,0.00,,---,0.00,VWS V14.01,2013-03-06 02:45:00,
2013-03-05 21:50:00,37.9,30.0,29.94,SE,132,8.0,9.0,73,0.00,,---,0.00,VWS V14.01,2013-03-06 02:50:00,
2013-03-05 21:55:00,38.0,29.5,29.93,SE,128,7.0,8.0,71,0.00,,---,0.00,VWS V14.01,2013-03-06 02:55:00,
2013-03-05 22:00:00,38.1,29.5,29.93,ESE,102,10.0,10.0,71,0.00,,---,0.00,VWS V14.01,2013-03-06 03:00:00,
2013-03-05 22:05:00,38.1,29.2,29.94,ENE,67,3.0,7.0,70,0.00,,---,0.00,VWS V14.01,2013-03-06 03:05:00,
2013-03-05 22:10:00,38.1,29.5,29.93,SSE,154,7.0,7.0,71,0.00,,---,0.00,VWS V14.01,2013-03-06 03:10:00,
2013-03-05 22:15:00,38.1,29.5,29.93,ENE,72,2.0,3.0,71,0.00,,---,0.00,VWS V14.01,2013-03-06 03:15:00,
2013-03-05 22:20:00,37.9,29.7,29.93,ESE,105,7.0,7.0,72,0.00,,---,0.00,VWS V14.01,2013-03-06 03:20:00,
2013-03-05 22:25:00,37.9,29.7,29.93,East,79,3.0,5.0,72,0.00,,---,0.00,VWS V14.01,2013-03-06 03:25:00,
2013-03-05 22:30:00,37.9,29.7,29.92,North,353,3.0,5.0,72,0.00,,---,0.00,VWS V14.01,2013-03-06 03:30:00,
2013-03-05 22:35:00,37.9,30.0,29.92,SE,133,3.0,3.0,73,0.00,,---,0.00,VWS V14.01,2013-03-06 03:35:00,
2013-03-05 22:40:00,37.9,28.6,29.92,NNW,348,5.0,6.0,69,0.00,,---,0.00,VWS V14.01,2013-03-06 03:40:00,
2013-03-05 22:45:00,38.0,27.7,29.93,SSE,155,5.0,7.0,66,0.00,,---,0.00,VWS V14.01,2013-03-06 03:45:00,
2013-03-05 22:50:00,38.1,28.1,29.92,ESE,102,4.0,5.0,67,0.00,,---,0.00,VWS V14.01,2013-03-06 03:50:00,
2013-03-05 22:55:00,38.1,27.8,29.93,ENE,71,7.0,7.0,66,0.00,,---,0.00,VWS V14.01,2013-03-06 03:55:00,
2013-03-05 23:00:00,38.1,28.1,29.92,ESE,112,7.0,7.0,67,0.00,,---,0.00,VWS V14.01,2013-03-06 04:00:00,
2013-03-05 23:05:00,38.1,27.4,29.92,ESE,113,7.0,13.0,65,0.00,,---,0.00,VWS V14.01,2013-03-06 04:05:00,
2013-03-05 23:10:00,38.1,27.4,29.92,SE,131,8.0,17.0,65,0.00,,---,0.00,VWS V14.01,2013-03-06 04:10:00,
2013-03-05 23:15:00,38.1,27.4,29.92,East,96,7.0,7.0,65,0.00,,---,0.00,VWS V14.01,2013-03-06 04:15:00,
2013-03-05 23:20:00,37.9,27.2,29.92,SE,125,4.0,8.0,65,0.00,,---,0.00,VWS V14.01,2013-03-06 04:20:00,
2013-03-05 23:25:00,37.8,27.1,29.92,East,86,10.0,11.0,65,0.00,,---,0.00,VWS V14.01,2013-03-06 04:25:00,
2013-03-05 23:30:00,37.6,26.9,29.92,ESE,114,6.0,12.0,65,0.00,,---,0.00,VWS V14.01,2013-03-06 04:30:00,
2013-03-05 23:35:00,37.6,26.5,29.92,ENE,77,10.0,16.0,64,0.00,,---,0.00,VWS V14.01,2013-03-06 04:35:00,
2013-03-05 23:40:00,37.6,26.5,29.92,East,82,7.0,12.0,64,0.00,,---,0.00,VWS V14.01,2013-03-06 04:40:00,
2013-03-05 23:45:00,37.5,26.1,29.91,ENE,77,4.0,11.0,63,0.00,,---,0.00,VWS V14.01,2013-03-06 04:45:00,
2013-03-05 23:50:00,37.4,25.6,29.92,ESE,118,6.0,12.0,62,0.00,,---,0.00,VWS V14.01,2013-03-06 04:50:00,
2013-03-05 23:55:00,37.2,25.8,29.92,NE,50,2.0,5.0,63,0.00,,---,0.00,VWS V14.01,2013-03-06 04:55:00,